DW2199 Weather Reports


Display with metric or nautical units.
time (UTC)temp
F
wind
direction
speed
MPH
gust
MPH
rain 1hr
in
rain 24hr
in
rain mn
in
humidity
%
barometer
mb
20260905161522 75 190 1.0 4.0 0.00 0.00 0.00 70 1010.9
20260905160022 74 174 0.0 3.0 0.00 0.00 0.00 73 1011.2
20260905154516 72 176 1.0 4.0 0.00 0.00 0.00 74 1011.2
20260905153015 70 188 1.0 3.0 0.00 0.00 0.00 79 1011.3
20260905151511 69 210 0.0 1.0 0.00 0.00 0.00 78 1011.6
20260905150011 70 177 0.0 2.0 0.00 0.00 0.00 77 1011.6
20260905144552 70 204 0.0 1.0 0.00 0.00 0.00 75 1011.3
20260905143052 70 205 0.0 2.0 0.00 0.00 0.00 76 1011.2
20260905141541 70 190 0.0 1.0 0.00 0.00 0.00 75 1011.2
20260905140034 70 190 0.0 1.0 0.00 0.00 0.00 76 1011.3
20260905134523 69 190 0.0 1.0 0.00 0.00 0.00 78 1011.4
20260905133023 68 190 0.0 1.0 0.00 0.00 0.00 79 1011.4
20260905131540 67 190 0.0 3.0 0.00 0.00 0.00 83 1011.3
20260905130021 64 197 1.0 2.0 0.00 0.00 0.00 86 1011.1
20260905124535 63 190 0.0 1.0 0.00 0.00 0.00 90 1011.2
20260905123018 62 188 0.0 0.0 0.00 0.00 0.00 92 1011.1
20260905121523 61 188 0.0 0.0 0.00 0.00 0.00 94 1011.0
20260905120015 60 188 0.0 0.0 0.00 0.00 0.00 95 1010.9
20260905114508 59 188 0.0 1.0 0.00 0.00 0.00 95 1010.8
20260905113003 58 188 0.0 0.0 0.00 0.00 0.00 95 1010.6
20260905111501 58 188 0.0 0.0 0.00 0.00 0.00 95 1010.7
20260905110100 57 188 0.0 0.0 0.00 0.00 0.00 94 1010.4
20260905104558 57 188 0.0 0.0 0.00 0.00 0.00 94 1010.3
20260905103058 57 188 0.0 0.0 0.00 0.00 0.00 94 1010.2
20260905101619 58 188 0.0 0.0 0.00 0.00 0.00 94 1010.1
20260905100054 58 188 0.0 0.0 0.00 0.00 0.00 94 1010.0
20260905094542 58 188 0.0 0.0 0.00 0.00 0.00 93 1009.9
20260905093042 58 188 0.0 0.0 0.00 0.00 0.00 93 1009.8
20260905091539 59 188 0.0 0.0 0.00 0.00 0.00 93 1009.8
20260905090040 59 188 0.0 0.0 0.00 0.00 0.00 93 1009.7
20260905084557 59 188 0.0 0.0 0.00 0.00 0.00 93 1009.8
20260905083034 59 188 0.0 0.0 0.00 0.00 0.00 92 1009.8
20260905081532 59 188 0.0 0.0 0.00 0.00 0.00 92 1009.7
20260905080030 60 188 0.0 0.0 0.00 0.00 0.00 92 1009.7
20260905074514 60 188 0.0 1.0 0.00 0.00 0.00 92 1009.7
20260905073016 60 188 0.0 0.0 0.00 0.00 0.00 91 1009.7
20260905071511 61 188 0.0 0.0 0.00 0.00 0.00 91 1009.7
20260905070008 61 188 0.0 0.0 0.00 0.00 0.00 90 1009.9
20260905064506 62 188 0.0 0.0 0.00 0.00 0.00 90 1010.0
20260905063006 62 188 0.0 0.0 0.00 0.00 0.00 89 1009.9
20260905061502 63 188 0.0 1.0 0.00 0.00 0.00 88 1010.0
20260905060100 63 188 0.0 1.0 0.00 0.00 0.00 87 1010.0
20260905054600 64 188 0.0 0.0 0.00 0.00 0.00 87 1010.0
20260905053038 64 188 0.0 0.0 0.00 0.00 0.00 87 1009.9
20260905051539 64 188 0.0 0.0 0.00 0.00 0.00 85 1010.0
20260905050016 65 188 0.0 0.0 0.00 0.00 0.00 85 1010.0
20260905044516 66 188 0.0 1.0 0.00 0.00 0.00 82 1010.0
20260905043002 65 188 0.0 2.0 0.00 0.00 0.00 85 1010.1
20260905041600 66 188 0.0 0.0 0.00 0.00 0.00 84 1010.3
20260905040059 65 188 0.0 0.0 0.00 0.00 0.00 84 1010.2
20260905034559 66 188 0.0 0.0 0.00 0.00 0.00 85 1010.3
20260905033100 66 188 0.0 0.0 0.00 0.00 0.00 85 1010.3
20260905031600 66 188 0.0 1.0 0.00 0.00 0.00 86 1010.3
20260905030101 66 189 0.0 0.0 0.00 0.00 0.00 86 1010.2
20260905024626 66 189 0.0 0.0 0.00 0.00 0.00 86 1010.2
20260905023044 67 189 0.0 0.0 0.00 0.00 0.00 85 1010.3
20260905021543 67 188 0.0 0.0 0.00 0.00 0.00 86 1010.3
20260905020047 67 189 0.0 0.0 0.00 0.00 0.00 85 1010.3
20260905014538 68 189 0.0 0.0 0.00 0.00 0.00 84 1010.3
20260905013034 69 188 0.0 0.0 0.00 0.00 0.00 84 1010.3
20260905011533 69 189 0.0 0.0 0.00 0.00 0.00 83 1010.4
20260905010031 69 188 0.0 0.0 0.00 0.00 0.00 83 1010.4
20260905004531 69 189 0.0 0.0 0.00 0.00 0.00 82 1010.2
20260905003013 70 188 0.0 0.0 0.00 0.00 0.00 82 1010.2
20260905001511 70 189 0.0 0.0 0.00 0.00 0.00 82 1010.0
20260905000058 70 188 0.0 0.0 0.00 0.00 0.00 81 1009.9
20260904234556 71 188 0.0 1.0 0.00 0.00 0.00 80 1009.8
20260904233101 72 188 0.0 0.0 0.00 0.00 0.00 79 1009.7
20260904231552 72 188 0.0 0.0 0.00 0.00 0.00 78 1009.6
20260904230048 73 188 0.0 1.0 0.00 0.00 0.00 76 1009.5
20260904224547 74 189 0.0 0.0 0.00 0.00 0.00 76 1009.6
20260904223045 74 188 0.0 0.0 0.00 0.00 0.00 75 1009.4
20260904221540 75 188 0.0 1.0 0.00 0.00 0.00 75 1009.3
20260904220023 76 188 0.0 1.0 0.00 0.00 0.00 72 1009.4
20260904214535 77 188 0.0 1.0 0.00 0.00 0.00 69 1009.2
20260904213057 78 188 0.0 1.0 0.00 0.00 0.00 66 1009.2
20260904211602 79 188 0.0 1.0 0.00 0.00 0.00 62 1009.2
20260904210043 80 193 0.0 1.0 0.00 0.00 0.00 57 1009.4
20260904204540 81 186 0.0 3.0 0.00 0.00 0.00 60 1009.3
20260904203038 82 186 0.0 2.0 0.00 0.00 0.00 54 1009.3
20260904201537 84 190 0.0 3.0 0.00 0.00 0.00 48 1009.3
20260904200036 83 167 0.0 5.0 0.00 0.00 0.00 47 1009.3
20260904194534 83 190 0.0 4.0 0.00 0.00 0.00 48 1009.4
20260904193043 84 200 0.0 3.0 0.00 0.00 0.00 50 1009.4
20260904191533 84 184 0.0 3.0 0.00 0.00 0.00 50 1009.4
20260904190013 85 200 0.0 2.0 0.00 0.00 0.00 46 1009.7
20260904184518 84 281 0.0 2.0 0.00 0.00 0.00 49 1009.6
20260904183053 83 1 0.0 6.0 0.00 0.00 0.00 50 1009.8
20260904181552 84 205 0.0 2.0 0.00 0.00 0.00 52 1009.7
20260904180049 85 101 0.0 3.0 0.00 0.00 0.00 49 1009.8
20260904174539 85 354 1.0 4.0 0.00 0.00 0.00 50 1009.8
20260904173039 86 8 1.0 7.0 0.00 0.00 0.00 45 1009.8
20260904171530 85 143 2.0 6.0 0.00 0.00 0.00 49 1009.9
20260904170028 80 163 0.0 4.0 0.00 0.00 0.00 56 1009.9
20260904164527 83 167 1.0 5.0 0.00 0.00 0.00 51 1009.9
20260904163026 82 161 0.0 4.0 0.00 0.00 0.00 53 1010.1